Location: Bay Ridge
(40.6340°N, 74.0146°W)
Time: 13:13:48
(UTC+00:00)

Cosmos 1725 Rocket - Pass Details

Date: 15 November 2019
Orbit: 962 x 990 km, 82.9° (Epoch: 05 December)

Event Time Altitude Azimuth Distance (km) Brightness Sun altitude
Rises 10:23:54 0° 177° (S) 3,654 7.2 -15.0°
Reaches altitude 10° 10:26:24 10° 175° (S) 2,715 6.5 -14.5°
Maximum altitude 10:32:34 68° 93° (E) 1,052 4.4 -13.4°
Drops below altitude 10° 10:38:49 10° 12° (NNE) 2,750 6.4 -12.2°
Sets 10:41:21 0° 10° (N) 3,706 7.0 -11.8°
